Lid_Strength_Index
6 5 5 4 4 4 5 5 6 8 7 5 6 4 4 3 2 3 3 1 0 1 1 1 1 1 2 2 2 3 3 5 5 5 5 4 4 3
5 5 5 5 4 4 5 4 4 6 8 6 5 5 4 3 2 3 3 1 1 1 1 2 1 2 1 2 2 2 3 4 4 5 5 4 4 3
6 5 5 4 4 4 4 4 4 5 7 6 5 4 5 5 5 4 4 4 4 2 1 2 2 2 2 2 2 2 3 3 4 4 4 4 3 3
6 5 5 3 4 4 4 5 6 6 7 8 6 6 6 6 6 6 4 4 4 2 2 1 1 2 2 2 2 2 2 3 3 4 3 3 3 3
5 5 5 5 5 5 6 7 7 6 6 8 8 7 7 7 7 6 5 5 3 2 2 1 1 1 1 1 2 2 2 2 3 3 3 3 3 3
4 4 4 4 6 7 7 8 7 8 8 9 9 8 8 7 7 7 7 6 6 4 3 3 2 1 1 1 1 1 2 2 2 3 3 3 3 3
4 4 4 4 4 6 7 8 8 9 9 10 10 9 9 8 8 7 7 7 6 5 5 5 4 3 3 2 1 0 1 2 2 2 2 2 2 3
6 5 5 4 5 5 5 5 6 9 10 10 9 9 8 8 7 7 7 8 9 5 6 6 4 4 3 2 1 1 2 2 2 2 2 1 2 2
6 6 5 5 5 7 6 6 7 6 7 8 9 8 7 7 7 9 9 9 9 6 6 7 4 5 3 2 1 1 1 1 2 2 2 2 2 2
6 6 6 7 8 8 8 9 9 8 8 7 7 7 7 7 8 8 8 8 7 6 4 7 4 5 4 4 1 0 1 1 2 2 3 3 2 2
5 6 6 7 7 7 8 9 9 9 6 6 6 6 6 5 6 7 8 8 9 6 4 4 5 5 4 4 3 0 1 1 1 2 3 3 3 2
6 6 7 8 7 7 10 11 11 9 9 9 8 7 6 7 5 6 6 7 7 8 5 5 4 4 5 4 2 3 4 1 2 2 3 3 3 4
6 7 7 7 7 7 8 10 10 9 9 9 8 8 8 7 7 7 7 8 7 7 4 3 4 4 5 4 3 2 3 5 5 5 3 3 3 4
7 7 6 6 6 6 7 7 7 8 9 10 10 9 9 9 8 7 5 5 4 3 2 2 3 4 5 6 5 3 2 3 5 7 7 5 3 3
6 6 5 6 6 6 6 6 8 9 9 13 11 10 9 8 7 7 6 5 5 3 2 2 2 4 5 6 6 4 3 5 6 6 8 7 8 9
6 6 7 7 8 8 8 7 8 8 10 11 12 10 9 9 9 8 8 7 7 5 2 3 3 3 6 6 5 6 5 5 6 8 8 9 8 7
8 8 9 8 8 8 8 8 8 8 10 11 12 11 10 10 10 9 8 7 8 7 6 4 2 3 4 4 5 5 5 4 5 6 7 9 8 6
9 10 10 10 8 9 10 10 9 9 9 10 11 11 11 11 10 10 8 8 9 8 8 6 5 5 4 5 4 5 4 4 4 6 7 6 6 5
8 10 10 8 9 7 9 9 10 10 9 10 11 12 11 11 11 10 10 9 10 9 8 7 6 7 8 9 6 4 5 6 6 8 7 8 6 6
7 8 8 8 7 8 9 9 10 11 11 10 13 11 13 13 12 11 11 11 11 10 9 8 7 9 10 10 9 8 5 8 8 8 7 6 7 6
7 7 7 7 6 8 9 9 11 12 13 14 13 12 11 12 14 11 12 12 12 10 10 9 8 7 7 8 9 9 10 6 7 9 8 10 8 10
7 7 6 6 7 7 7 8 10 12 12 11 13 14 10 14 14 14 13 12 11 12 11 10 7 6 6 7 8 10 8 10 8 7 7 8 12 11
6 6 6 6 6 6 8 9 8 11 11 12 13 13 14 15 13 14 13 13 11 12 12 12 9 8 7 7 8 9 11 11 10 10 12 7 7 7